• Join FlightAware (Why Join?)
  • Login
  • US Flag 
01:25AM EDT


 

Airport Tracker/Info


-or-


 

Live Flight TrackerFlight Track Log ✈ EJA951 ✈ 19-Jul-2013 ✈ KABQ - KBZN

Flight Track Log - Related Links

Times and Time Zones

All times are in EDT time to prevent confusion due to time zone crossing. See the EJA951 flight status page for this flight to view local times or setup timezone preferences in your user account.

Time Position Orientation Groundspeed Altitude Reporting Facility
EDT Latitude Longitude Course Direction KTS MPH feet Rate Location/Type
02:11PM 35.0417 -106.6056 North 161 185 6,200  Level Albuquerque Center
02:13PM 35.1125 -106.5978 North 299 344 9,200 2,820 Climbing Albuquerque Center
02:14PM 35.2178 -106.6197 350° North 326 375 12,700 3,180 Climbing Albuquerque Center
02:15PM 35.2919 -106.7039 317° Northwest 370 426 15,800 2,580 Climbing Albuquerque Center
02:16PM 35.3700 -106.7956 316° Northwest 388 447 18,100 2,040 Climbing Albuquerque Center
02:17PM 35.4639 -106.8717 327° Northwest 412 474 20,000 1,740 Climbing Albuquerque Center
02:18PM 35.5692 -106.9283 336° Northwest 413 475 21,700 1,680 Climbing Albuquerque Center
02:19PM 35.6917 -106.9911 337° Northwest 420 483 23,500 1,500 Climbing Albuquerque Center
02:20PM 35.8194 -107.0558 338° Northwest 437 503 24,800 1,200 Climbing Albuquerque Center
02:21PM 35.9292 -107.1125 337° Northwest 445 512 26,100 1,140 Climbing Albuquerque Center
02:22PM 36.0475 -107.1728 338° Northwest 455 524 27,200 1,020 Climbing Albuquerque Center
02:23PM 36.1769 -107.2403 337° Northwest 465 535 28,300 1,080 Climbing Albuquerque Center
02:24PM 36.3119 -107.3106 337° Northwest 471 542 29,500 1,020 Climbing Albuquerque Center
02:25PM 36.4300 -107.3708 338° Northwest 476 548 30,500 1,020 Climbing Albuquerque Center
02:26PM 36.5483 -107.4325 337° Northwest 480 552 31,700 1,560 Climbing Albuquerque Center
02:27PM 36.6847 -107.5053 337° Northwest 478 550 33,800 2,040 Climbing Albuquerque Center
02:29PM 36.8489 -107.5906 337° Northwest 451 519 37,000 1,800 Climbing Denver Center
02:30PM 36.9772 -107.6564 338° Northwest 449 517 38,500 1,200 Climbing Denver Center
02:31PM 37.0917 -107.7183 337° Northwest 464 534 39,600 720 Climbing Denver Center
02:32PM 37.2297 -107.7911 337° Northwest 483 556 40,000 180 Climbing Denver Center
02:33PM 37.3539 -107.8592 336° Northwest 505 581 40,000  Level Denver Center
02:34PM 37.5036 -107.9289 340° North 514 592 40,000  Level Denver Center
02:35PM 37.6319 -107.9619 348° North 496 571 40,000  Level Denver Center
02:36PM 37.7775 -108.0056 347° North 483 556 40,000  Level Denver Center
02:37PM 37.9039 -108.0411 347° North 486 559 40,000  Level Denver Center
02:38PM 38.0517 -108.0831 347° North 489 563 40,000  Level Denver Center
02:39PM 38.1800 -108.1606 335° Northwest 492 566 40,000  Level Denver Center
02:40PM 38.2933 -108.2408 331° Northwest 488 562 40,000  Level Denver Center
02:41PM 38.4258 -108.3358 331° Northwest 489 563 40,000  Level Denver Center
02:42PM 38.5378 -108.4164 331° Northwest 482 555 40,000  Level Denver Center
02:43PM 38.6506 -108.4967 331° Northwest 482 555 40,000  Level Denver Center
02:44PM 38.7806 -108.5919 330° Northwest 481 554 40,000  Level Denver Center
02:45PM 38.8919 -108.6728 331° Northwest 480 552 40,000  Level Denver Center
02:46PM 39.0228 -108.7669 331° Northwest 480 552 40,000  Level Denver Center
02:47PM 39.1425 -108.8239 340° North 480 552 40,000  Level Denver Center
02:48PM 39.2872 -108.8756 345° North 480 552 40,000  Level Denver Center
02:49PM 39.4119 -108.9200 345° North 482 555 40,000  Level Denver Center
02:50PM 39.5367 -108.9650 344° North 479 551 40,000  Level Denver Center
02:51PM 39.7056 -109.0272 344° North 485 558 40,000  Level Denver Center
02:52PM 39.8297 -109.0692 345° North 478 550 40,000  Level Denver Center
02:54PM 39.9733 -109.1219 344° North 478 550 40,000  Level Denver Center
02:55PM 40.0961 -109.1661 345° North 477 549 40,000  Level Denver Center
02:56PM 40.2383 -109.2189 344° North 476 548 40,000  Level Denver Center
02:57PM 40.3603 -109.2631 345° North 475 547 40,000  Level Denver Center
02:58PM 40.5033 -109.3175 344° North 479 551 40,000  Level Denver Center
02:59PM 40.6258 -109.3622 345° North 479 551 40,000  Level Denver Center
03:00PM 40.7506 -109.4089 344° North 479 551 40,000  Level Denver Center
03:01PM 40.8944 -109.4619 344° North 480 552 40,000  Level Denver Center
03:02PM 41.0383 -109.5172 344° North 481 554 40,000  Level Denver Center
03:03PM 41.2028 -109.5792 344° North 482 555 40,000  Level Salt Lake Center
03:04PM 41.3269 -109.6272 344° North 482 555 40,000  Level Salt Lake Center
03:05PM 41.4522 -109.6728 345° North 483 556 40,000  Level Salt Lake Center
03:06PM 41.5972 -109.7294 344° North 483 556 40,000  Level Salt Lake Center
03:07PM 41.7217 -109.7772 344° North 483 556 40,000  Level Salt Lake Center
03:08PM 41.8661 -109.8319 344° North 482 555 40,000  Level Salt Lake Center
03:09PM 41.9892 -109.8806 344° North 481 554 40,000  Level Salt Lake Center
03:10PM 42.1319 -109.9364 344° North 479 551 40,000  Level Salt Lake Center
03:11PM 42.2531 -109.9839 344° North 475 547 40,000  Level Salt Lake Center
03:12PM 42.3958 -110.0411 344° North 478 550 40,000  Level Salt Lake Center
03:13PM 42.5172 -110.0878 344° North 473 544 40,000  Level Salt Lake Center
03:14PM 42.6606 -110.1389 345° North 476 548 40,000  Level Salt Lake Center
03:16PM 42.7931 -110.1797 347° North 474 545 40,000  Level Salt Lake Center
03:17PM 42.9164 -110.2181 347° North 475 547 40,000  Level Salt Lake Center
03:18PM 43.0592 -110.2628 347° North 472 543 40,000  Level Salt Lake Center
03:19PM 43.1819 -110.3014 347° North 472 543 40,000  Level Salt Lake Center
03:20PM 43.3161 -110.3394 348° North 473 544 40,000  Level Salt Lake Center
03:21PM 43.4383 -110.3781 347° North 473 544 40,000  Level Salt Lake Center
03:22PM 43.5689 -110.4200 347° North 470 541 40,000  Level Salt Lake Center
03:23PM 43.7125 -110.4642 347° North 473 544 40,000  Level Salt Lake Center
03:24PM 43.8364 -110.5047 347° North 476 548 40,000 -960 Level Salt Lake Center
03:25PM 43.9797 -110.5531 346° North 476 548 38,100 -2,220 Descending Salt Lake Center
03:26PM 44.1014 -110.5928 347° North 471 542 35,500 -2,760 Descending Salt Lake Center
03:27PM 44.2450 -110.6392 347° North 475 547 32,400 -2,820 Descending Salt Lake Center
03:28PM 44.3719 -110.6772 348° North 487 560 29,700 -3,000 Descending Salt Lake Center
03:29PM 44.5192 -110.7292 346° North 489 563 26,200 -3,360 Descending Salt Lake Center
03:30PM 44.6458 -110.7719 346° North 491 565 22,800 -3,600 Descending Salt Lake Center
03:31PM 44.7828 -110.8181 347° North 459 528 18,800 -2,820 Descending Salt Lake Center
03:32PM 44.8950 -110.8539 347° North 440 506 17,000 -900 Descending Salt Lake Center
03:33PM 45.0233 -110.8975 346° North 430 495 17,000  Level Salt Lake Center
03:34PM 45.1447 -110.9361 347° North 430 495 17,000 -1,260 Level Salt Lake Center
03:35PM 45.2594 -110.9747 347° North 427 491 14,400 -1,980 Descending Salt Lake Center
03:36PM 45.3622 -111.0103 346° North 391 450 13,000 -720 Descending Salt Lake Center
03:37PM 45.4578 -111.0314 351° North 354 407 13,000 -600 Level Salt Lake Center
03:38PM 45.5378 -111.0453 353° North 301 346 11,800 -2,580 Descending Salt Lake Center
03:39PM 45.6250 -111.0614 353° North 277 319 7,700 -2,880 Descending Salt Lake Center
03:40PM 45.6894 -111.0742 352° North 256 295 5,900 -1,140 Descending Salt Lake Center
03:41PM 45.7381 -111.0975 341° North 217 250 5,400 -660 Descending Salt Lake Center
03:42PM 45.7678 -111.1394 315° West 172 198 4,600 -780 Descending Salt Lake Center